Temp
-1 -1 -1 -1 -1 -2 -2 -2 -2 -2 -3 -3 -3 -3 -3 -3 -4 -4 -4 -4 -4 -4 -4 -4 -5 -5 -5 -5 -5 -7 -7 -7 -7 -6 -6 -7 -8 -8 -8 -7 -7 -7 -6 -7 -7
-2 -1 -1 -1 -1 -2 -2 -2 -3 -3 -3 -3 -3 -3 -3 -3 -3 -4 -4 -4 -4 -4 -4 -4 -5 -5 -5 -5 -5 -7 -7 -8 -6 -5 -5 -5 -6 -8 -8 -8 -8 -7 -7 -8 -8
-2 -1 -1 -1 -1 -2 -2 -2 -3 -3 -3 -3 -3 -3 -3 -4 -4 -4 -4 -4 -4 -4 -4 -4 -5 -4 -5 -5 -6 -6 -6 -6 -6 -5 -5 -5 -6 -6 -8 -8 -8 -6 -7 -7 -8
-2 -2 -1 -1 -1 -2 -2 -2 -3 -3 -3 -3 -3 -3 -3 -4 -4 -4 -4 -4 -4 -4 -4 -5 -5 -5 -5 -4 -5 -6 -6 -5 -5 -5 -5 -5 -5 -6 -6 -7 -6 -6 -7 -7 -8
-2 -2 -2 -1 -2 -2 -2 -2 -3 -3 -3 -3 -3 -3 -3 -3 -4 -4 -4 -4 -4 -4 -5 -5 -5 -5 -5 -5 -5 -5 -5 -5 -6 -5 -5 -5 -5 -5 -6 -6 -6 -6 -7 -7 -8
-2 -2 -2 -2 -2 -2 -2 -2 -3 -3 -3 -3 -3 -3 -3 -4 -4 -4 -4 -4 -4 -4 -5 -5 -5 -5 -5 -5 -5 -5 -5 -5 -5 -6 -6 -5 -5 -5 -6 -7 -6 -6 -6 -7 -7
-2 -2 -2 -2 -2 -2 -2 -3 -3 -3 -3 -3 -3 -3 -3 -3 -4 -4 -4 -4 -4 -4 -4 -5 -5 -5 -5 -5 -5 -5 -6 -5 -5 -7 -6 -5 -5 -6 -7 -6 -7 -6 -5 -6 -8
-2 -2 -2 -2 -2 -2 -2 -2 -2 -3 -3 -3 -3 -3 -3 -3 -4 -4 -4 -4 -4 -4 -4 -5 -5 -5 -5 -6 -6 -6 -6 -5 -6 -6 -7 -6 -6 -6 -6 -7 -8 -8 -7 -5 -6
-3 -3 -2 -2 -2 -2 -2 -2 -2 -3 -3 -3 -3 -3 -3 -3 -3 -3 -4 -4 -4 -4 -4 -4 -5 -5 -6 -6 -5 -6 -6 -7 -7 -6 -6 -7 -8 -7 -7 -7 -6 -7 -7 -6 -6
-3 -3 -3 -2 -2 -2 -2 -2 -2 -3 -3 -3 -3 -3 -4 -3 -3 -3 -4 -4 -4 -4 -4 -4 -5 -6 -6 -5 -5 -7 -7 -7 -7 -5 -7 -7 -7 -6 -7 -6 -7 -7 -7 -7 -6
-3 -3 -3 -3 -2 -2 -2 -2 -2 -3 -3 -3 -3 -3 -4 -4 -4 -4 -4 -4 -4 -4 -4 -4 -5 -6 -4 -6 -6 -7 -6 -6 -7 -6 -7 -6 -8 -6 -7 -7 -7 -7 -7 -7 -6
-4 -3 -3 -3 -3 -3 -2 -2 -2 -3 -3 -3 -3 -3 -4 -4 -4 -4 -4 -4 -4 -4 -4 -4 -4 -5 -7 -7 -6 -6 -6 -7 -7 -7 -7 -6 -8 -7 -6 -6 -6 -7 -6 -6 -7
-4 -4 -3 -3 -3 -3 -3 -3 -3 -3 -3 -3 -3 -3 -3 -4 -4 -4 -4 -4 -4 -4 -4 -4 -4 -5 -6 -6 -6 -6 -7 -7 -8 -6 -7 -7 -7 -7 -7 -7 -7 -6 -6 -6 -7
-4 -4 -4 -3 -3 -3 -3 -3 -3 -3 -3 -3 -3 -3 -3 -3 -3 -4 -4 -4 -4 -4 -4 -5 -5 -6 -6 -7 -6 -6 -6 -6 -6 -6 -6 -7 -8 -7 -7 -7 -7 -5 -5 -6 -7
-4 -4 -4 -4 -4 -3 -3 -3 -3 -3 -3 -3 -3 -3 -3 -3 -4 -4 -4 -4 -4 -4 -5 -5 -6 -6 -6 -5 -6 -5 -6 -6 -6 -6 -6 -7 -7 -8 -8 -8 -7 -6 -5 -5 -6
-5 -5 -4 -4 -4 -4 -4 -4 -4 -4 -4 -3 -4 -4 -4 -4 -4 -4 -4 -5 -5 -5 -6 -6 -6 -7 -7 -6 -6 -6 -6 -7 -7 -7 -7 -7 -8 -8 -9 -8 -7 -7 -7 -7 -5
-5 -5 -5 -4 -4 -4 -4 -4 -4 -4 -4 -4 -4 -4 -5 -4 -4 -5 -5 -5 -5 -6 -6 -6 -6 -7 -6 -7 -6 -6 -6 -6 -7 -8 -8 -7 -8 -8 -8 -8 -8 -8 -8 -8 -6
-6 -5 -5 -5 -5 -5 -4 -4 -4 -5 -7 -7 -6 -4 -5 -5 -5 -5 -5 -6 -6 -6 -7 -7 -8 -8 -8 -7 -7 -7 -6 -7 -7 -8 -9 -8 -8 -8 -8 -8 -8 -8 -8 -8 -7
-6 -6 -6 -6 -5 -5 -5 -4 -5 -7 -6 -8 -8 -6 -5 -6 -6 -7 -6 -6 -6 -6 -7 -7 -8 -8 -8 -7 -6 -7 -7 -7 -6 -7 -8 -8 -9 -8 -8 -9 -9 -9 -9 -8 -7
-6 -6 -6 -6 -6 -6 -5 -5 -6 -6 -5 -7 -7 -7 -8 -8 -8 -9 -9 -8 -8 -9 -8 -8 -8 -7 -8 -8 -7 -8 -7 -7 -7 -7 -7 -8 -8 -9 -9 -8 -8 -7 -7 -8 -7
-7 -7 -7 -7 -7 -6 -5 -6 -7 -7 -6 -6 -6 -6 -7 -8 -8 -8 -8 -8 -9 -9 -7 -7 -8 -7 -8 -8 -8 -7 -7 -7 -7 -8 -8 -8 -9 -9 -9 -9 -9 -9 -9 -8 -7
-8 -8 -7 -7 -7 -6 -6 -7 -7 -7 -6 -7 -6 -8 -7 -8 -8 -8 -9 -9 -9 -9 -8 -5 -7 -7 -7 -7 -9 -9 -9 -9 -8 -8 -9 -9 -10 -9 -9 -10 -10 -10 -9 -8 -7
-9 -9 -7 -8 -7 -7 -8 -8 -8 -7 -7 -6 -6 -7 -8 -8 -8 -9 -9 -9 -9 -9 -8 -6 -7 -7 -7 -8 -9 -10 -10 -8 -8 -9 -8 -8 -8 -10 -10 -10 -9 -9 -8 -8 -7
-9 -9 -9 -9 -8 -8 -8 -8 -8 -7 -8 -7 -7 -7 -8 -8 -8 -8 -9 -8 -7 -8 -8 -7 -7 -8 -7 -8 -8 -9 -9 -11 -10 -8 -8 -8 -8 -9 -11 -10 -10 -10 -9 -8 -8
-9 -10 -8 -8 -8 -8 -8 -9 -8 -8 -7 -8 -7 -7 -8 -8 -8 -8 -8 -8 -8 -7 -7 -7 -7 -7 -7 -8 -9 -8 -8 -9 -9 -10 -9 -8 -8 -9 -10 -10 -9 -8 -8 -8 -9
-9 -9 -8 -8 -8 -8 -8 -9 -9 -8 -8 -8 -8 -8 -8 -8 -8 -8 -9 -9 -8 -7 -7 -7 -7 -7 -8 -8 -8 -8 -8 -9 -9 -9 -10 -9 -9 -9 -9 -8 -8 -8 -8 -8 -9
-10 -10 -9 -10 -9 -9 -9 -9 -9 -9 -9 -8 -8 -8 -9 -8 -7 -8 -8 -8 -7 -7 -7 -7 -7 -8 -8 -8 -8 -8 -9 -9 -9 -9 -9 -9 -9 -10 -9 -9 -9 -9 -9 -9 -9
Height
5914 5915 5916 5917 5917 5917 5917 5918 5918 5919 5920 5921 5921 5922 5922 5922 5922 5923 5923 5924 5924 5923 5924 5924 5924 5922 5922 5920 5915 5916 5922 5924 5926 5927 5925 5923 5922 5920 5914 5909 5911 5913 5912 5910 5905
5913 5915 5916 5917 5917 5918 5918 5919 5920 5921 5921 5922 5923 5923 5924 5924 5924 5925 5926 5925 5926 5926 5925 5925 5926 5923 5925 5921 5917 5920 5923 5925 5926 5925 5925 5924 5922 5922 5920 5907 5907 5911 5910 5909 5907
5913 5914 5916 5917 5918 5918 5919 5919 5920 5921 5922 5923 5924 5924 5925 5925 5926 5926 5926 5927 5927 5927 5927 5926 5927 5926 5925 5922 5920 5923 5924 5926 5926 5926 5925 5924 5923 5921 5920 5908 5908 5913 5911 5909 5909
5912 5914 5915 5917 5918 5918 5919 5920 5921 5921 5922 5923 5924 5925 5926 5927 5928 5927 5927 5927 5927 5927 5927 5928 5928 5927 5926 5924 5921 5923 5925 5925 5925 5925 5924 5924 5923 5921 5919 5914 5909 5914 5912 5911 5910
5911 5913 5914 5916 5917 5918 5919 5919 5920 5921 5922 5923 5924 5925 5926 5927 5927 5927 5927 5927 5927 5927 5927 5927 5927 5926 5925 5925 5925 5925 5925 5925 5925 5924 5923 5923 5922 5921 5920 5913 5910 5910 5912 5912 5912
5910 5911 5913 5914 5916 5917 5918 5919 5920 5921 5922 5923 5923 5925 5926 5927 5927 5927 5927 5928 5928 5927 5927 5926 5926 5925 5924 5924 5924 5923 5922 5923 5923 5923 5923 5921 5921 5921 5921 5921 5911 5911 5913 5913 5913
5908 5910 5912 5913 5914 5916 5917 5918 5919 5920 5921 5922 5923 5924 5926 5927 5927 5927 5927 5927 5927 5927 5927 5926 5925 5925 5924 5925 5924 5922 5921 5923 5922 5924 5923 5920 5920 5920 5922 5922 5919 5912 5911 5914 5914
5906 5908 5910 5911 5913 5914 5915 5917 5918 5919 5920 5921 5922 5923 5924 5925 5926 5927 5927 5927 5926 5926 5925 5924 5924 5924 5924 5925 5923 5923 5922 5921 5922 5924 5925 5923 5920 5920 5922 5921 5920 5914 5911 5910 5913
5903 5906 5907 5909 5911 5912 5913 5915 5916 5917 5918 5920 5921 5922 5923 5924 5925 5926 5926 5926 5926 5925 5924 5923 5923 5923 5924 5924 5923 5919 5920 5922 5924 5924 5926 5924 5920 5920 5921 5919 5920 5918 5913 5911 5910
5901 5903 5905 5907 5908 5910 5911 5912 5914 5915 5917 5918 5920 5922 5922 5923 5923 5924 5925 5925 5924 5924 5923 5922 5921 5922 5921 5920 5921 5921 5923 5926 5924 5925 5927 5924 5921 5921 5919 5919 5919 5919 5915 5911 5910
5898 5900 5902 5904 5905 5907 5909 5910 5913 5914 5914 5916 5918 5918 5920 5921 5921 5922 5922 5922 5922 5922 5921 5920 5920 5920 5919 5919 5920 5921 5923 5925 5926 5924 5924 5922 5920 5921 5918 5919 5919 5919 5915 5914 5913
5894 5896 5899 5900 5902 5904 5906 5907 5909 5911 5912 5913 5914 5916 5917 5918 5919 5919 5920 5921 5920 5919 5919 5919 5918 5916 5917 5918 5919 5920 5922 5925 5923 5921 5922 5921 5918 5918 5918 5916 5916 5914 5913 5912 5912
5889 5892 5895 5897 5899 5901 5903 5905 5906 5907 5909 5910 5911 5912 5913 5914 5915 5916 5917 5917 5917 5917 5916 5915 5915 5915 5916 5917 5917 5918 5918 5919 5920 5919 5920 5921 5921 5917 5916 5914 5914 5913 5913 5912 5913
5885 5887 5890 5892 5896 5897 5900 5901 5902 5904 5905 5908 5908 5910 5909 5910 5913 5913 5913 5915 5914 5914 5913 5913 5913 5914 5915 5914 5915 5913 5915 5916 5918 5919 5918 5918 5919 5916 5915 5913 5910 5912 5913 5912 5912
5879 5882 5885 5888 5890 5893 5895 5896 5899 5900 5902 5906 5905 5906 5906 5908 5910 5910 5911 5911 5911 5911 5911 5911 5911 5912 5913 5912 5913 5913 5916 5916 5916 5915 5916 5917 5918 5916 5914 5908 5904 5903 5908 5909 5908
5873 5876 5879 5882 5885 5888 5890 5892 5895 5898 5897 5901 5901 5902 5904 5904 5904 5907 5908 5909 5909 5908 5908 5908 5909 5911 5911 5912 5912 5912 5914 5915 5914 5914 5914 5912 5914 5912 5909 5904 5903 5901 5899 5900 5903
5866 5870 5873 5876 5879 5881 5884 5887 5891 5893 5894 5894 5899 5899 5900 5900 5900 5903 5904 5905 5906 5906 5905 5907 5907 5905 5908 5908 5910 5910 5910 5911 5911 5908 5909 5911 5910 5910 5909 5906 5904 5902 5900 5898 5898
5858 5862 5866 5869 5872 5875 5878 5882 5886 5889 5891 5890 5889 5894 5896 5896 5897 5898 5901 5902 5902 5902 5903 5903 5903 5903 5904 5906 5906 5906 5906 5907 5907 5906 5906 5909 5911 5910 5908 5907 5904 5902 5899 5895 5893
5851 5855 5858 5861 5864 5867 5871 5875 5882 5883 5883 5887 5887 5887 5891 5893 5894 5893 5895 5897 5898 5896 5900 5901 5901 5900 5900 5900 5903 5903 5903 5903 5905 5906 5906 5909 5906 5904 5902 5903 5902 5897 5893 5892 5892
5842 5846 5849 5853 5856 5859 5864 5870 5874 5875 5876 5879 5882 5886 5887 5889 5893 5893 5893 5893 5894 5893 5894 5898 5899 5899 5897 5896 5900 5900 5899 5899 5899 5901 5902 5903 5898 5899 5896 5894 5892 5890 5888 5886 5885
5833 5837 5841 5844 5848 5852 5857 5863 5867 5869 5872 5873 5877 5878 5881 5886 5891 5891 5891 5892 5892 5888 5890 5893 5894 5899 5894 5893 5894 5893 5893 5893 5895 5894 5895 5897 5894 5893 5892 5890 5886 5882 5879 5878 5878
5822 5826 5830 5834 5840 5844 5849 5855 5859 5861 5859 5865 5869 5873 5875 5878 5881 5886 5887 5883 5887 5883 5882 5886 5889 5890 5890 5890 5889 5889 5888 5887 5887 5891 5890 5891 5893 5886 5887 5882 5881 5877 5873 5871 5871
5812 5815 5820 5828 5832 5837 5843 5846 5848 5850 5851 5858 5861 5866 5870 5871 5874 5878 5876 5875 5877 5877 5876 5880 5881 5884 5886 5888 5886 5882 5883 5882 5883 5883 5884 5884 5887 5882 5876 5875 5872 5868 5868 5866 5862
5801 5806 5808 5816 5822 5827 5829 5834 5837 5839 5843 5846 5854 5856 5861 5863 5866 5870 5868 5869 5869 5871 5871 5872 5875 5875 5879 5880 5878 5877 5875 5873 5873 5875 5875 5876 5878 5879 5871 5866 5863 5861 5857 5854 5852
5787 5790 5796 5804 5811 5816 5820 5827 5829 5830 5834 5839 5844 5849 5852 5855 5858 5860 5864 5858 5859 5864 5864 5865 5867 5869 5870 5873 5870 5870 5869 5867 5866 5866 5865 5869 5867 5866 5862 5857 5853 5852 5851 5850 5848
5774 5780 5791 5793 5800 5806 5810 5815 5820 5823 5825 5832 5835 5839 5841 5846 5849 5850 5849 5851 5851 5852 5852 5858 5860 5860 5862 5863 5863 5863 5863 5862 5860 5859 5859 5859 5856 5851 5850 5850 5847 5846 5845 5843 5840
5767 5773 5778 5783 5790 5798 5802 5805 5809 5812 5816 5820 5824 5827 5828 5831 5835 5838 5841 5841 5842 5846 5845 5844 5852 5853 5853 5852 5851 5855 5857 5854 5852 5851 5850 5848 5843 5840 5840 5838 5836 5835 5833 5831 5828
Wind_Speed
9 5 4 5 8 10 12 13 13 13 12 13 12 12 12 12 12 12 12 11 11 10 10 11 10 12 8 14 21 25 25 14 3 7 5 8 8 18 14 18 19 18 14 14 18
9 6 5 6 9 10 12 12 12 12 11 11 11 11 11 12 11 10 9 9 8 8 8 9 8 9 4 9 18 14 15 8 6 4 7 10 9 10 9 21 22 20 13 14 15
9 7 5 7 9 10 11 11 12 11 10 9 9 8 8 8 9 8 8 7 6 6 6 7 6 3 3 8 15 9 6 2 4 5 7 8 10 9 8 15 20 16 13 13 13
11 9 7 7 8 10 11 11 11 10 10 8 7 7 6 6 5 6 6 5 4 4 4 4 4 3 3 4 9 7 3 4 6 8 7 7 9 10 7 9 18 16 13 10 11
11 9 8 8 7 9 10 10 10 9 9 7 6 6 5 4 5 6 7 6 5 4 4 4 3 3 4 4 7 5 3 6 7 7 7 7 7 7 8 13 19 19 12 10 8
12 10 9 9 8 8 9 9 9 9 9 7 7 8 7 6 6 6 6 7 7 7 5 4 2 4 5 8 6 8 8 7 4 11 10 10 8 5 10 7 20 21 15 10 8
13 11 10 10 10 9 9 9 8 8 8 8 8 7 6 4 5 5 5 5 5 5 5 4 3 3 5 5 5 11 12 2 8 21 17 15 2 6 11 10 11 20 22 12 10
14 13 12 11 10 9 9 10 9 8 8 8 8 8 6 4 3 3 3 4 5 5 4 5 5 4 3 3 14 18 17 11 14 20 8 11 10 12 11 14 8 14 21 21 15
16 14 13 12 11 10 9 10 10 9 8 8 9 8 7 5 4 3 1 3 5 6 6 5 3 1 2 6 9 19 17 6 13 20 4 5 9 17 18 14 11 10 17 22 21
17 16 14 13 12 12 10 10 10 10 10 8 8 8 7 5 5 4 3 4 7 7 8 6 2 3 8 10 6 12 16 12 15 8 6 4 13 14 14 15 15 12 16 19 19
18 17 16 14 13 13 11 10 11 11 11 8 9 8 8 7 7 7 7 7 8 7 8 4 3 6 8 3 3 13 20 18 11 13 6 11 16 14 11 15 16 22 15 14 15
20 18 18 16 14 14 11 11 11 13 11 9 11 11 10 11 10 10 11 10 9 8 8 7 5 3 3 3 5 7 14 14 4 14 3 8 10 19 10 20 25 26 18 15 13
22 21 20 18 16 16 13 11 11 12 11 10 11 11 10 11 10 11 11 9 8 8 8 8 8 2 6 6 6 5 8 13 14 4 2 1 6 17 22 27 28 17 8 11 12
23 23 21 20 19 17 16 13 12 12 12 10 12 9 11 10 7 9 8 7 7 8 8 3 7 4 3 8 7 13 10 11 5 7 7 3 5 21 21 25 29 17 17 16 15
25 24 23 22 20 18 19 17 13 13 16 10 11 10 11 10 9 7 7 7 8 8 6 6 7 5 7 9 6 9 4 2 2 5 10 4 5 15 14 25 30 33 31 20 19
28 26 26 24 22 21 19 18 16 15 16 12 10 10 10 11 11 7 9 8 8 7 6 7 9 6 9 9 7 8 4 3 3 5 1 8 8 16 18 21 29 37 41 38 21
29 28 27 26 24 24 23 21 19 15 19 20 12 15 14 13 13 8 10 10 9 9 10 9 2 16 7 8 7 8 9 8 5 2 6 11 4 11 15 20 28 35 38 35 34
31 30 28 28 26 26 25 25 19 14 4 13 23 14 13 14 14 14 12 12 11 9 10 6 3 12 18 7 12 13 10 7 11 8 2 6 7 18 22 27 29 32 38 38 32
32 31 29 29 28 29 29 28 17 21 21 16 22 23 16 12 11 15 15 11 12 10 10 11 10 12 21 23 15 20 13 15 8 12 13 4 13 23 22 21 26 32 36 41 34
35 34 33 33 32 32 32 27 23 28 29 29 26 19 16 9 9 18 18 17 8 17 19 14 17 18 24 27 18 16 17 15 14 12 14 12 19 15 22 29 35 40 42 39 36
35 34 35 33 33 35 33 27 27 32 32 33 27 23 22 18 16 24 24 17 13 26 24 17 22 18 26 25 19 20 14 16 12 12 16 19 17 19 20 26 33 39 42 43 39
37 35 37 35 36 35 32 27 29 35 39 36 30 30 27 24 29 24 22 30 19 32 34 14 17 19 22 22 22 20 21 25 24 17 20 22 19 28 29 29 28 36 43 46 36
39 38 40 33 34 32 29 29 33 38 41 29 28 31 30 32 34 34 26 33 32 35 39 28 25 22 19 16 18 24 21 26 20 20 16 23 22 26 29 36 42 44 42 41 41
43 41 42 37 36 36 39 38 39 41 42 36 29 33 32 36 36 37 39 40 40 40 40 36 27 28 25 21 24 28 27 28 27 25 25 23 21 27 30 38 43 46 46 45 43
44 43 46 44 40 40 39 37 41 45 41 39 35 34 35 36 37 37 37 43 43 40 38 36 32 29 29 25 29 31 32 35 34 34 34 30 31 32 37 44 46 46 45 43 39
45 45 44 46 45 44 43 40 40 43 42 37 38 35 37 35 36 38 41 42 43 40 41 34 32 31 29 28 27 29 31 35 38 41 39 36 38 41 43 44 46 43 39 39 39
44 41 42 42 41 36 38 42 43 42 39 38 38 38 40 41 41 41 41 44 42 37 38 40 28 29 29 29 31 30 24 31 35 36 37 39 43 44 43 43 42 42 42 40 41
Wind_Direction
159 148 125 114 122 123 124 127 126 119 117 113 107 102 97 95 97 99 101 101 97 90 83 80 77 73 51 69 76 74 62 34 9 319 7 14 33 55 350 336 347 22 17 16 7
165 162 142 132 133 132 132 134 134 129 127 123 114 111 105 98 95 91 89 93 97 93 83 79 66 62 73 65 72 44 358 359 330 2 14 6 22 81 10 343 336 1 360 13 7
174 170 157 144 143 142 138 138 142 140 137 135 128 118 112 107 99 96 91 81 78 81 85 85 87 84 73 81 77 62 96 36 330 355 357 358 357 15 133 290 303 17 10 14 7
180 176 168 157 156 151 145 143 145 152 149 148 144 131 120 114 105 96 92 92 76 57 60 77 90 65 59 42 94 92 52 14 352 347 337 332 342 357 4 307 319 7 12 17 16
186 183 176 172 166 164 156 151 148 158 164 163 159 144 120 112 104 102 94 86 75 65 56 48 33 5 26 41 66 44 25 23 1 340 349 347 344 360 13 336 326 340 5 11 14
194 192 188 182 179 178 173 165 155 158 164 161 151 140 129 119 113 107 93 86 71 69 63 46 7 345 1 14 32 41 6 14 345 24 354 346 339 347 12 357 322 326 337 358 347
201 200 196 191 187 183 185 184 174 173 174 173 164 148 135 127 108 99 80 64 47 34 29 8 354 15 22 45 37 53 46 169 71 6 349 346 331 10 2 332 334 321 332 2 339
206 206 201 198 195 192 192 196 190 190 188 184 181 176 172 156 135 113 89 49 22 5 353 334 354 4 25 48 87 65 35 22 355 333 334 328 338 318 2 342 328 311 317 329 340
211 209 206 205 204 201 205 207 205 204 201 197 193 193 197 198 190 163 124 21 8 353 344 337 341 349 107 185 164 87 78 14 302 304 298 340 306 305 324 309 312 294 299 316 322
216 214 212 211 214 211 216 217 218 218 214 207 202 198 204 210 218 229 249 309 338 341 344 333 307 227 226 241 273 122 142 180 266 292 342 224 265 295 299 337 5 347 307 308 320
222 222 220 219 219 218 223 224 223 229 227 222 223 214 213 222 238 250 271 296 314 323 330 315 275 238 255 81 62 184 197 213 270 286 262 276 259 297 316 351 351 339 308 308 315
229 227 225 225 226 223 227 230 229 234 236 232 241 238 241 250 254 261 272 286 298 307 310 290 313 41 22 272 258 242 234 236 254 292 293 287 294 318 325 338 335 336 314 326 340
233 230 230 229 229 228 226 236 235 232 238 248 244 251 247 255 256 264 270 280 284 292 291 306 337 300 269 275 264 222 188 206 210 284 107 83 294 301 317 321 316 334 358 350 356
234 236 231 230 230 233 232 236 240 237 238 238 247 252 257 257 258 257 266 267 267 271 289 278 309 257 257 242 200 227 249 265 250 245 228 223 125 281 298 292 297 320 343 342 341
233 236 235 231 231 231 234 237 243 246 251 247 247 231 254 268 263 257 262 256 268 282 281 259 277 265 252 278 263 274 340 359 332 265 240 294 242 298 271 288 299 313 329 331 328
234 232 235 235 234 234 235 238 243 248 257 253 251 255 254 257 265 257 260 257 260 276 281 269 301 310 289 284 271 275 272 197 143 12 155 71 245 247 261 275 304 313 315 315 325
235 233 232 233 233 232 232 237 239 236 258 270 237 254 253 260 265 248 250 255 258 256 252 242 258 314 241 267 259 257 258 230 175 0 254 177 304 260 290 286 297 300 301 305 308
234 233 231 233 231 232 232 235 232 225 164 291 286 248 250 251 257 265 242 252 258 245 257 244 179 279 301 226 302 308 296 283 196 229 323 161 210 274 265 275 281 283 286 298 310
233 232 230 229 228 230 232 236 209 198 206 184 252 270 261 249 266 285 276 261 259 252 249 218 213 234 264 283 291 295 275 270 271 228 232 263 265 250 243 250 266 275 280 292 305
234 235 231 231 229 230 234 235 204 221 223 204 220 240 232 256 245 240 269 283 246 249 262 234 253 255 248 265 286 281 288 278 275 264 213 201 267 283 278 277 281 282 288 295 304
237 234 233 231 230 233 236 230 205 219 231 231 237 234 215 197 212 259 278 272 236 249 264 263 255 245 255 274 286 292 298 286 265 251 224 223 263 264 262 273 279 282 282 291 303
234 232 232 230 230 231 231 225 219 221 232 224 228 231 243 212 190 218 244 258 229 251 261 268 269 261 256 266 270 281 294 289 286 277 260 250 227 259 258 273 274 275 280 289 304
235 232 237 230 232 230 227 221 224 226 237 234 233 227 222 233 207 206 216 233 234 245 259 275 274 271 265 254 246 255 266 271 266 268 258 252 242 257 274 272 273 275 280 292 297
232 233 234 227 226 226 225 220 221 230 234 244 228 228 221 227 235 222 220 237 246 245 256 268 266 264 264 265 255 248 247 263 276 273 282 275 262 223 244 257 262 269 281 293 303
229 227 232 233 224 225 226 226 225 232 234 237 237 237 235 233 235 240 238 250 256 256 259 262 265 262 266 258 248 254 262 260 258 267 275 279 274 269 256 255 269 280 287 292 295
229 230 233 236 233 234 228 223 227 233 241 231 238 234 235 232 233 234 236 238 251 258 262 259 261 266 265 267 262 255 258 263 267 270 275 277 275 268 267 272 276 284 286 289 292
232 232 231 231 234 230 231 229 230 232 236 239 232 228 230 231 233 236 236 244 252 256 270 277 271 268 271 267 266 270 273 260 261 264 269 270 271 273 281 285 286 291 293 295 294